OV1-5 DEB

Satellite information

Favourite Embed

Satellite Type and Status

DEBRISIN ORBIT

Key statistics

Satellite OV1-5 DEB at a glance.

Uptime

21758

Days in orbit

Revolutions

≈ 14.8

Per day

Orbit

SSO

Sun Synchronous Orbit

Inclination

144.6

Latest

Satellite identification and parameters

Extended collection of information and parameters for OV1-5 DEB.

Object identification

Identified? True

Debris? True

Object name: OV1-5 DEB

International designator: 1966-025G

Object number (NORAD): 5599

Object ID (CCSDS): 5599

Country: UNITED STATES OF AMERICA (US)

Current information (Y/N): Y

RCS size: SMALL

Orbital parameters

Period: 97.2 minutes

Inclination: 144.6136 deg

SMA: 7002.779 km

Apoapsis: 638.347 km

Periapsis: 610.94 km

RAAN: 214.2596 deg

Eccentricy: 0.00195688

Argument of periapsis: 63.6596 deg

Mean anomaly: 296.6121 deg

Mean motion: 14.81484675 rev/day

Mean motion (dot): 0.00042754 rev/day2

B* drag term: 0.0052332011 1/REarth

Two-line elements (TLE)

Creation date: Oct. 24, 2025, 2:48 a.m.

Reference frame: TEME

Reference center: EARTH

Epoch: Oct. 23, 2025, 4:03 p.m. UTC

TLE line 0: 0 OV1-5 DEB

TLE line 1: 1 05599U 66025G 25296.66890172 .00042754 00000-0 52332-2 0 9999

TLE line 2: 2 05599 144.6136 214.2596 0019569 63.6596 296.6121 14.81484675 69267

Live tracking on map

Real-time ground track for satellite OV1-5 DEB.

In-orbit conjunctions

A list of the most updated potential collisions computed for object OV1-5 DEB.

Target Orbit TCA Probability of collision Miss distance Type
CZ-6A DEB SSO 2024-11-10 21:26:02 0.0001155706 528.0 (m) DEBRIS

Associated space launch

The OV1 (Orbiting Vehicle 1) were small research satellite to be launched piggy back on Atlas ICBM test flights. They consisted in general of the OV1 satellite and the OV1-PM propulsion module (or upper stage) to reach orbit.

OV1-5 DEB was lifted into orbit during the mission ‘Atlas D | OV1-4 & 5’, on board a Atlas D space rocket.

The launch took place on March 30, 1966, 9:20 a.m. from 576B3.

For more information about the launch, click the button.

Launch to space Atlas D | OV1-4 & 5
Atlas D | OV1-4 & 5

Agency: N/A

Status: Launch Successful

Launch date: March 30, 1966, 9:20 a.m. UTC

Rocket: Atlas D

Launch pad: 576B3

Location: Vandenberg SFB, CA, USA

...

Latest news about this satellite

There are no fresh news available about this satellite. Check back as we update our databases every day.


Newsletter sign-up

Weekly statistics, charts and insights to help you stay on top of the space industry.